ROMMA est une association bénévole à but non lucratif. Votre soutien est indispensable : ADHERER à ROMMA ou FAIRE un DON

Voiron - (38, Isère)

Voironnais (300 m)   Longitude: 05° 35' E   Latitude: 45° 23' N Station partenaire n°109
 

Détail journalier du     <<     >>

Température Precipitation Humidité Pression Vent Dir Rafale Dir. rafale Ensol.
Heure (°C) (mm) (%) (hPa) (km/h) (km/h) (min)
01:00 9.406710292NNO3NNO0
02:00 8.407010292NNO6NNO0
03:00 8.007210292NO5NNO0
04:00 7.807210292N6NO0
05:00 6.7075102903N0
06:00 6.307510292N6N0
07:00 6.107510292OSO8NNO0
08:00 8.806910292N6NNE30
09:00 11.905210292NNE6NNE60
10:00 12.705110294SSE13S60
11:00 14.404310286S15SSE60
12:00 16.603810286SSO18SSO60
13:00 18.803710274S11SO60
14:00 20.703110269SSE24N60
15:00 20.5036102615NNO31NNO60
16:00 21.5033102514N27NNO60
17:00 21.3034102514NNO29NO60
18:00 20.3034102514NNO29N60
19:00 18.7037102514NNO27NNO30
20:00 17.8039102610N21N0
21:00 15.204710263ENE15ENE0
22:00 13.105610261ONO5ONO0
23:00 11.706010261ONO5ONO0
minuit 10.906310262OSO8NO0

Graphique du 23-03-2019

 

Serveur OMMA